TimeCDT,TemperatureF,Dew PointF,Humidity,Sea Level PressureIn,VisibilityMPH,Wind Direction,Wind SpeedMPH,Gust SpeedMPH,PrecipitationIn,Events,Conditions,WindDirDegrees,DateUTC
12:13 AM,60.4,58.1,92,29.90,10.0,Calm,Calm,-,N/A,,Mostly Cloudy,0,2013-06-12 05:13:00
12:33 AM,59.9,58.1,94,29.89,10.0,Calm,Calm,-,N/A,Thunderstorm,Thunderstorm,0,2013-06-12 05:33:00
12:53 AM,60.8,58.6,93,29.91,10.0,NNW,3.5,-,0.02,Thunderstorm,Mostly Cloudy,340,2013-06-12 05:53:00
1:13 AM,62.6,57.2,82,29.90,10.0,North,3.5,-,N/A,Thunderstorm,Thunderstorm,10,2013-06-12 06:13:00
1:33 AM,62.6,57.0,82,29.88,10.0,NE,5.8,-,N/A,Thunderstorm,Overcast,40,2013-06-12 06:33:00
1:53 AM,62.2,56.3,81,29.88,10.0,ENE,4.6,-,N/A,Thunderstorm,Mostly Cloudy,60,2013-06-12 06:53:00
2:13 AM,63.1,53.4,71,29.87,10.0,East,8.1,-,N/A,,Scattered Clouds,80,2013-06-12 07:13:00
2:33 AM,64.2,51.6,64,29.85,10.0,East,6.9,-,N/A,Thunderstorm,Mostly Cloudy,80,2013-06-12 07:33:00
2:53 AM,62.1,53.2,73,29.86,10.0,NE,5.8,-,N/A,,Scattered Clouds,50,2013-06-12 07:53:00
3:13 AM,61.2,53.6,76,29.85,10.0,ENE,3.5,-,N/A,,Clear,60,2013-06-12 08:13:00
3:33 AM,60.8,53.8,78,29.85,7.0,NE,3.5,-,0.02,Rain,Light Rain,50,2013-06-12 08:33:00
3:53 AM,59.7,54.1,82,29.86,10.0,Calm,Calm,-,0.02,,Mostly Cloudy,0,2013-06-12 08:53:00
4:13 AM,60.4,54.0,79,29.88,10.0,ESE,5.8,-,N/A,Thunderstorm,Overcast,120,2013-06-12 09:13:00
4:33 AM,60.8,53.6,77,29.88,10.0,NE,5.8,-,N/A,Thunderstorm,Thunderstorm,40,2013-06-12 09:33:00
4:52 AM,61.3,53.1,74,29.85,10.0,NE,6.9,-,N/A,Thunderstorm,Thunderstorm,50,2013-06-12 09:52:00
5:13 AM,61.7,52.3,71,29.84,10.0,ENE,5.8,-,N/A,Thunderstorm,Scattered Clouds,70,2013-06-12 10:13:00
5:33 AM,61.2,52.3,73,29.84,10.0,ENE,6.9,-,N/A,,Scattered Clouds,60,2013-06-12 10:33:00
5:53 AM,60.8,53.1,76,29.84,10.0,ENE,6.9,-,N/A,,Scattered Clouds,60,2013-06-12 10:53:00
6:13 AM,61.3,52.5,73,29.85,10.0,NE,5.8,-,N/A,,Mostly Cloudy,50,2013-06-12 11:13:00
6:32 AM,61.7,52.2,71,29.85,10.0,NNE,4.6,-,N/A,,Overcast,30,2013-06-12 11:32:00
6:53 AM,60.8,53.2,76,29.86,10.0,NNE,3.5,-,N/A,,Overcast,20,2013-06-12 11:53:00
7:13 AM,59.9,52.9,78,29.87,10.0,North,5.8,-,0.01,Rain-Thunderstorm,Light Thunderstorms and Rain,350,2013-06-12 12:13:00
7:33 AM,60.6,52.0,73,29.92,10.0,WNW,5.8,-,0.01,Rain,Light Rain,300,2013-06-12 12:33:00
7:53 AM,59.9,53.6,80,29.93,10.0,WNW,3.5,-,0.06,Rain,Light Rain,290,2013-06-12 12:53:00
8:13 AM,59.9,54.5,82,29.93,10.0,Calm,Calm,-,0.01,Rain,Light Rain,0,2013-06-12 13:13:00
8:33 AM,59.2,54.5,84,29.91,10.0,Calm,Calm,-,0.01,,Mostly Cloudy,0,2013-06-12 13:33:00
8:53 AM,59.0,55.2,87,29.90,10.0,Calm,Calm,-,0.01,Rain-Thunderstorm,Light Thunderstorms and Rain,0,2013-06-12 13:53:00
9:13 AM,58.5,55.8,91,29.84,10.0,East,10.4,-,0.01,Rain-Thunderstorm,Rain,80,2013-06-12 14:13:00
9:33 AM,58.5,54.5,87,29.82,10.0,East,9.2,17.3,0.07,Rain-Thunderstorm,Rain,90,2013-06-12 14:33:00
9:53 AM,58.3,54.3,87,29.81,10.0,ENE,11.5,-,0.10,Rain,Light Rain,60,2013-06-12 14:53:00
10:13 AM,58.1,54.5,88,29.81,10.0,North,10.4,-,0.01,Rain,Light Rain,10,2013-06-12 15:13:00
10:33 AM,58.1,54.5,88,29.82,10.0,NE,10.4,-,0.01,Rain,Light Rain,50,2013-06-12 15:33:00
10:53 AM,59.4,54.3,83,29.84,10.0,NE,5.8,-,0.01,,Scattered Clouds,50,2013-06-12 15:53:00
11:13 AM,60.8,53.6,77,29.85,10.0,Calm,Calm,-,N/A,,Mostly Cloudy,0,2013-06-12 16:13:00
11:33 AM,61.9,54.1,76,29.86,10.0,Calm,Calm,-,N/A,,Scattered Clouds,0,2013-06-12 16:33:00
11:53 AM,62.6,55.0,76,29.87,10.0,North,3.5,-,N/A,,Mostly Cloudy,360,2013-06-12 16:53:00
12:13 PM,64.9,55.0,70,29.87,10.0,NNE,4.6,-,N/A,,Scattered Clouds,20,2013-06-12 17:13:00
12:33 PM,67.1,56.5,69,29.87,10.0,North,5.8,-,N/A,,Mostly Cloudy,350,2013-06-12 17:33:00
12:53 PM,67.1,55.4,66,29.87,10.0,North,6.9,-,N/A,,Overcast,350,2013-06-12 17:53:00
1:12 PM,68.5,56.5,65,29.86,10.0,North,8.1,-,N/A,,Scattered Clouds,360,2013-06-12 18:12:00
1:33 PM,69.1,56.7,65,29.86,10.0,North,10.4,-,N/A,,Mostly Cloudy,350,2013-06-12 18:33:00
1:53 PM,69.6,56.3,63,29.86,10.0,North,9.2,16.1,N/A,,Overcast,350,2013-06-12 18:53:00
2:13 PM,70.3,56.5,61,29.86,10.0,North,5.8,-,N/A,,Overcast,360,2013-06-12 19:13:00
2:33 PM,70.2,57.0,63,29.86,10.0,North,5.8,-,N/A,,Overcast,350,2013-06-12 19:33:00
2:53 PM,70.7,57.2,62,29.86,10.0,North,5.8,-,N/A,,Overcast,360,2013-06-12 19:53:00
3:13 PM,70.7,57.0,62,29.86,10.0,North,6.9,-,N/A,,Overcast,350,2013-06-12 20:13:00
3:33 PM,70.0,55.0,59,29.87,10.0,North,6.9,-,N/A,,Overcast,350,2013-06-12 20:33:00
3:53 PM,69.4,55.8,62,29.87,10.0,North,6.9,-,N/A,,Overcast,350,2013-06-12 20:53:00
4:12 PM,68.9,56.7,65,29.89,10.0,NNW,4.6,-,N/A,Rain,Light Rain,340,2013-06-12 21:12:00
4:33 PM,68.0,57.2,68,29.89,10.0,NNW,5.8,-,N/A,,Light Drizzle,340,2013-06-12 21:33:00
4:53 PM,67.8,56.7,67,29.89,10.0,NW,5.8,-,N/A,Rain,Light Rain,320,2013-06-12 21:53:00
5:12 PM,67.1,58.1,73,29.89,10.0,NW,3.5,-,N/A,Rain,Light Rain,310,2013-06-12 22:12:00
5:33 PM,65.8,56.1,71,29.90,10.0,NW,6.9,-,N/A,Rain,Light Rain,320,2013-06-12 22:33:00
5:53 PM,66.2,56.5,71,29.90,10.0,NW,8.1,-,N/A,Rain,Light Rain,310,2013-06-12 22:53:00
6:12 PM,66.9,56.1,68,29.90,10.0,NW,6.9,-,N/A,Rain,Light Rain,320,2013-06-12 23:12:00
6:33 PM,67.5,57.0,69,29.90,10.0,NW,5.8,-,N/A,Rain,Light Rain,320,2013-06-12 23:33:00
6:53 PM,69.1,56.3,64,29.90,10.0,NNW,8.1,-,N/A,,Scattered Clouds,330,2013-06-12 23:53:00
7:13 PM,70.2,55.9,61,29.90,10.0,NNW,5.8,-,N/A,,Scattered Clouds,340,2013-06-13 00:13:00
7:33 PM,69.4,56.8,64,29.91,10.0,NW,4.6,-,N/A,,Scattered Clouds,310,2013-06-13 00:33:00
7:53 PM,69.1,57.9,68,29.91,10.0,NNW,4.6,-,N/A,,Scattered Clouds,330,2013-06-13 00:53:00
8:13 PM,68.9,55.8,63,29.92,10.0,NNW,5.8,-,N/A,,Clear,330,2013-06-13 01:13:00
8:33 PM,67.8,54.5,62,29.93,10.0,NW,5.8,-,N/A,,Clear,320,2013-06-13 01:33:00
8:53 PM,65.7,54.5,67,29.94,10.0,NNW,5.8,-,N/A,,Clear,330,2013-06-13 01:53:00
9:13 PM,64.4,53.6,68,29.95,10.0,NW,6.9,-,N/A,,Clear,320,2013-06-13 02:13:00
9:33 PM,63.7,52.5,67,29.96,10.0,NW,4.6,-,N/A,,Clear,310,2013-06-13 02:33:00
9:53 PM,63.7,52.0,66,29.97,10.0,NW,5.8,-,N/A,,Clear,310,2013-06-13 02:53:00
10:13 PM,63.1,52.7,69,29.98,10.0,NW,3.5,-,N/A,,Clear,310,2013-06-13 03:13:00
10:33 PM,63.5,52.7,68,29.98,10.0,NNW,6.9,-,N/A,,Clear,340,2013-06-13 03:33:00
10:53 PM,63.1,51.8,66,29.98,10.0,North,5.8,-,N/A,,Clear,350,2013-06-13 03:53:00
11:13 PM,62.1,51.8,69,29.99,10.0,North,4.6,-,N/A,,Clear,360,2013-06-13 04:13:00
11:33 PM,61.0,51.6,71,30.00,10.0,NW,3.5,-,N/A,,Clear,320,2013-06-13 04:33:00
11:53 PM,59.9,51.8,75,30.01,10.0,NW,5.8,-,N/A,,Clear,320,2013-06-13 04:53:00